Location: Newark
(42.9277°N, 71.8621°W)
Time: 19:48:38
(UTC+00:00)

Transit 4A - Pass Details

Date: 18 May 2021
Orbit: 872 x 973 km, 66.8° (Epoch: 15 June)

Event Time Altitude Azimuth Distance (km) Brightness Sun altitude
Rises 05:14:28 0° 335° (NNW) 3,496 11.8 -27.1°
Reaches altitude 10° 05:17:26 10° 348° (NNW) 2,542 11.1 -27.0°
Maximum altitude 05:22:14 25° 44° (NE) 1,681 9.7 -26.8°
Drops below altitude 10° 05:26:59 10° 99° (E) 2,518 10.2 -26.7°
Sets 05:29:54 0° 112° (ESE) 3,455 10.8 -26.6°
